Powrót do katalogu

ARIANE 40 R/B

AktywnySSO
NORAD 25261·ROCKET BODY·🇫🇷 France

Wystrzelony Mar 24, 1998 z Guiana Space Centre

Loading…

Następne Przeloty (najbliższe 24 godziny)

TLE

ŚwieżeSource: Space-Track

Epoka: Sep 14, 2026, 19:21 UTC

1 25261U 98017B   26257.80668684  .00000241  00000-0  98203-4 0  9992
2 25261  98.8094 290.8024 0002895 202.9336 157.1721 14.36399139488855

Śledź ARIANE 40 R/B w czasie rzeczywistym z AllMySat

Download on the App Store